Zurück zum Katalog

COSMOS 2251 DEB

LostVLEO
NORAD 39554·DEBRIS·🇷🇺 Russia

Gestartet Jun 16, 1993 von Plesetsk Cosmodrome

Loading…

Nächste Überflüge (nächste 24 Stunden)

TLE

VeraltetSource: Space-Track

Epoche: Aug 7, 2026, 10:54 UTC

1 39554U 93036BUL 26219.45423685  .00196817  00000-0  25328-2 0  9998
2 39554  73.9948 118.7511 0022132 183.6250 176.4810 15.58027222680170

Verfolge COSMOS 2251 DEB in Echtzeit mit AllMySat

Download on the App Store